Location: Caltech
(34.1382°N, 118.1253°W)
Time: 22:26:08
(UTC-07:00)

RS-15 - Visible Passes

Search period start: 28 June 2017 00:00
Search period end: 08 July 2017 00:00
Orbit: 1882 x 2162 km, 64.8° (Epoch: 28 June)

Date Brightness Start Highest point End Pass type
(mag) Time Alt. Az. Time Alt. Az. Time Alt. Az.
28 Jun 10.6 01:50:38 10° NNW 01:55:12 12° N 01:59:45 10° NNE visible
28 Jun 10.2 04:04:43 10° NNW 04:14:23 26° NE 04:23:38 10° E visible
28 Jun 8.2 20:32:54 10° SSW 20:44:58 82° ESE 20:57:22 10° NNE visible
28 Jun 9.8 22:48:34 10° W 22:58:54 31° NW 23:09:24 10° NNE visible
29 Jun 10.6 01:12:40 10° NNW 01:17:33 13° N 01:22:25 10° NNE visible
29 Jun 10.4 03:28:47 10° NNW 03:37:22 21° NNE 03:45:40 10° ENE visible
29 Jun 9.5 22:11:10 10° WSW 22:22:13 38° NW 22:33:30 10° NNE visible
30 Jun 10.6 00:34:08 10° NW 00:39:57 14° NNW 00:45:45 10° NNE visible
30 Jun 10.5 02:52:45 10° NNW 03:00:10 17° NNE 03:07:22 10° ENE visible
30 Jun 9.1 05:04:38 10° NNW 05:16:27 54° NE 05:27:35 10° SE visible
30 Jun 9.2 21:34:07 10° SW 21:45:42 48° NW 21:57:34 10° NNE visible
30 Jun 10.5 23:55:29 10° WNW 00:02:28 16° NNW 00:09:29 10° NNE visible
01 Jul 10.6 02:16:35 10° NNW 02:22:46 15° NNE 02:28:51 10° NE visible
01 Jul 9.4 04:28:42 10° NNW 04:40:01 42° NE 04:50:45 10° ESE visible
01 Jul 8.8 20:57:25 10° SW 21:09:21 61° NW 21:21:37 10° NNE visible
01 Jul 10.4 23:16:59 10° WNW 23:25:11 20° NNW 23:33:25 10° NNE visible
02 Jul 10.7 01:40:05 10° NNW 01:45:14 13° N 01:50:18 10° NE visible
02 Jul 9.7 03:52:47 10° NNW 04:03:26 34° NE 04:13:34 10° ESE visible
02 Jul 8.5 20:21:03 10° SSW 20:33:09 77° WNW 20:45:37 10° NNE visible
02 Jul 10.2 22:38:48 10° W 22:48:04 24° NW 22:57:27 10° NNE visible
03 Jul 10.7 01:03:00 10° NNW 01:07:36 12° N 01:12:08 10° NNE visible
03 Jul 10.0 03:16:51 10° NNW 03:26:39 27° NE 03:36:01 10° E visible
03 Jul 10.0 22:00:57 10° W 22:11:10 30° NW 22:21:32 10° NNE visible
04 Jul 10.7 00:25:08 10° NNW 00:29:56 13° N 00:34:41 10° NNE visible
04 Jul 10.2 02:40:55 10° NNW 02:49:40 22° NNE 02:58:06 10° ENE visible
04 Jul 8.5 04:52:46 10° NNW 05:04:52 71° ENE 05:16:16 10° SE visible
04 Jul 9.7 21:23:29 10° WSW 21:34:27 37° NW 21:45:37 10° NNE visible
04 Jul 10.7 23:46:40 10° NW 23:52:19 14° NNW 23:57:57 10° NNE visible
05 Jul 10.4 02:04:55 10° NNW 02:12:29 18° NNE 02:19:51 10° ENE visible
05 Jul 8.8 04:16:47 10° NNW 04:28:38 56° NE 04:39:48 10° SE visible
05 Jul 9.4 20:46:23 10° WSW 20:57:54 47° NW 21:09:42 10° NNE visible
05 Jul 10.6 23:08:01 10° NW 23:14:50 16° NNW 23:21:39 10° NNE visible
06 Jul 10.5 01:28:46 10° NNW 01:35:07 15° NNE 01:41:21 10° NE visible
06 Jul 9.2 03:40:50 10° NNW 03:52:14 44° NE 04:03:01 10° ESE visible
06 Jul 10.5 22:29:29 10° WNW 22:37:30 19° NNW 22:45:33 10° NNE visible
07 Jul 10.6 00:52:20 10° NNW 00:57:36 13° N 01:02:48 10° NE visible
07 Jul 9.5 03:04:54 10° NNW 03:15:40 35° NE 03:25:53 10° ESE visible
07 Jul 8.1 05:17:10 10° NNW 05:29:02 70° WSW 05:40:15 10° SSE visible
07 Jul 10.3 21:51:14 10° W 22:00:22 23° NW 22:09:35 10° NNE visible
